Temp_Advection
nan nan nan nan nan nan nan nan nan nan nan nan nan nan nan nan nan nan nan nan nan nan nan nan nan nan nan nan nan nan nan nan nan nan nan nan nan nan nan nan nan nan nan nan nan nan nan nan nan nan nan nan
nan 0 0 0 0 0 0 0 0 0 0 0 0 0 0 0 0 0 0 0 0 -0 -0 -0 -0 -0 -0 -0 -0 -0 -0 -1 -1 -0 -0 -0 0 0 -0 -0 -1 -1 -1 -1 -1 -1 -2 -2 -2 -1 -2 nan
nan -0 0 0 0 0 0 0 0 0 -0 0 -0 -0 -0 -0 -0 -0 -0 -0 -0 -0 -0 -0 -0 -0 -0 0 -0 -0 -0 -0 -1 -0 -0 -0 -0 -0 -0 -0 -0 -1 -1 -1 -1 -1 -1 -2 -2 -1 -1 nan
nan 0 0 0 0 0 0 0 0 -0 -0 -1 -1 -1 -1 -1 -0 -0 -0 -0 -0 -0 -0 -0 -0 -0 -0 0 0 0 0 0 -0 -0 -0 -0 -0 -0 -0 -0 -0 -0 -0 -1 -1 -1 -1 -1 -2 -2 -1 nan
nan 0 0 0 0 0 0 -0 0 -0 -0 -1 -1 -1 -1 -1 -1 -1 -1 -0 -0 -0 -0 0 -0 -0 -0 -0 -0 -0 0 0 -0 -1 -1 -1 -1 -1 -1 -1 0 0 -0 -0 -1 -1 -1 -1 -1 -2 -2 nan
nan 0 0 0 0 0 0 0 0 0 -0 -0 -0 -0 -0 -1 -1 -1 -0 -0 -0 -0 -0 -0 -0 -0 -1 -1 -1 -1 -0 -0 -0 -1 -1 -1 -2 -2 -2 -2 -1 -0 -0 -0 -0 -0 -1 -0 -0 -1 -2 nan
nan 0 0 0 0 0 0 0 0 0 0 0 0 -0 -0 -1 -1 -0 -0 -0 -1 -1 -0 -0 -0 -0 -1 -1 -1 -1 -1 -0 -0 -1 -1 -1 -1 -2 -2 -2 -2 -1 -1 -0 -0 -0 -0 -0 -0 -0 -1 nan
nan 0 0 0 0 0 0 1 0 0 0 0 0 0 0 -0 -0 -0 -1 -1 -1 -1 -1 -0 -0 -0 -0 -0 -0 -0 -1 -0 0 0 -0 0 0 -1 -2 -2 -3 -2 -1 -1 -1 -1 -0 0 -0 -0 -0 nan
nan 0 0 0 1 0 0 1 1 1 1 1 1 1 0 0 0 -0 -1 -1 -1 -1 -1 -0 -0 -0 -0 -1 -0 -0 -0 -0 0 1 1 0 0 0 -1 -1 -2 -2 -2 -2 -1 -1 -1 0 1 0 -0 nan
nan 0 0 1 1 1 1 1 1 1 1 1 1 1 1 1 1 0 0 -0 -0 -0 -0 -0 -0 -0 -0 -0 -1 -0 -0 0 0 1 1 1 1 1 -0 -1 -1 -1 -2 -2 -2 -2 -2 -1 0 1 1 nan
nan 1 0 1 0 1 1 1 1 1 1 1 1 1 1 1 1 1 1 0 -0 -0 -0 -0 -0 -0 -0 -0 -1 -1 -1 0 1 1 1 1 1 1 1 0 -0 -0 -1 -2 -2 -2 -3 -3 -2 0 1 nan
nan 1 1 1 0 0 1 1 1 1 1 1 1 1 1 1 1 1 1 1 0 -0 -0 -0 0 0 -0 -0 -1 -1 -1 -0 0 0 1 1 0 1 1 1 0 0 0 -0 -1 -2 -2 -3 -4 -3 -0 nan
nan 1 1 1 0 0 1 1 1 1 1 1 1 1 1 1 1 1 1 1 1 -0 -0 0 0 0 0 -0 -0 -1 -1 -1 -0 0 0 0 0 0 0 0 0 1 0 0 -0 -1 -1 -1 -3 -5 -3 nan
nan 1 1 1 0 1 1 1 1 1 1 1 1 1 1 1 1 1 1 1 1 0 -0 0 0 0 0 0 -0 -1 -1 -1 -1 -0 0 0 0 0 -0 0 0 1 0 -0 -0 -0 -1 0 -1 -4 -6 nan
nan 0 0 0 0 -0 0 0 0 0 1 1 1 1 1 1 1 1 1 1 1 1 0 0 0 0 0 0 0 -0 -1 -1 -1 -1 -0 0 0 -0 -0 -0 0 1 0 -1 -1 -1 -1 -0 1 -1 -5 nan
nan -0 -0 -0 -1 -1 -1 -1 -0 -0 0 1 1 0 0 1 1 1 1 1 1 1 0 0 0 0 1 1 0 0 -0 -1 -1 -1 -0 -0 -0 -0 -0 -0 -0 1 0 -0 -1 -1 -1 -1 -0 0 -2 nan
nan -1 -1 -1 -1 -1 -1 -2 -1 -1 -0 -0 0 0 -0 0 1 1 1 1 1 1 1 0 0 1 1 1 1 0 -0 -1 -1 -1 -1 -1 -0 -0 -0 -1 -0 1 1 0 -0 -0 -0 -1 -1 -1 -1 nan
nan -1 -1 -1 -1 -1 -1 -1 -2 -1 -1 -0 -0 -0 -1 -0 0 1 1 1 1 1 1 1 1 1 1 1 1 0 0 -0 -1 -1 -1 -1 -1 -0 -0 -0 0 1 1 0 0 0 0 0 -1 -1 -1 nan
nan -0 -1 -1 -1 -1 -1 -2 -2 -2 -1 -1 -0 -0 -1 -1 -1 0 1 1 1 1 1 1 1 1 1 1 1 1 1 -0 -0 -0 -0 -1 -1 -1 -0 -0 0 1 1 0 0 1 1 0 -0 -0 -1 nan
nan 0 0 -0 -1 -1 -1 -2 -2 -2 -2 -2 -2 -1 -1 -1 -1 -1 -0 -0 0 1 1 1 1 1 1 1 1 1 1 0 -0 -0 -0 -0 -1 -1 -1 -1 0 1 1 0 -0 1 1 1 0 0 -0 nan
nan 1 1 1 -0 -0 -1 -1 -1 -1 -2 -2 -3 -3 -2 -1 -1 -1 -1 -1 -0 -0 -0 0 0 1 1 1 1 1 1 1 0 0 -0 -0 -0 -0 -1 -1 -0 0 1 0 -0 0 0 0 0 0 -0 nan
nan 1 1 1 1 0 -0 -1 -1 -1 -1 -1 -2 -2 -2 -2 -1 -1 -1 -1 -0 -0 -1 -1 -0 0 1 1 1 1 1 1 1 1 -0 -1 -0 0 -0 -1 -0 0 0 0 -0 -0 0 0 -0 -0 -0 nan
nan 1 1 1 1 1 0 -0 -0 -1 -1 -1 -1 -2 -2 -2 -2 -2 -1 -1 -0 -0 -0 -1 -1 -0 0 1 1 1 1 1 1 1 0 -0 -1 -0 -0 -0 0 0 -0 -0 -1 -0 0 0 -0 -0 -0 nan
nan -0 0 0 0 0 1 0 -0 -1 -1 -0 -1 -1 -1 -2 -2 -2 -2 -1 -1 -1 -1 -0 -0 -0 -0 0 0 0 0 1 1 1 0 -0 -1 -0 -0 0 1 0 -0 -1 -1 -0 0 -0 -0 -0 -0 nan
nan -1 -1 -0 -0 -0 0 0 -0 -0 -1 -0 -0 -0 -1 -1 -1 -1 -1 -1 -1 -1 -1 -1 -0 0 0 0 -0 -0 -0 1 1 1 1 -0 -0 -0 -0 0 1 1 0 -1 -1 -1 -1 -0 -0 -0 -0 nan
nan -0 -0 -0 -0 -0 -0 0 0 -0 -0 -0 -0 -0 -1 -0 -1 -1 -1 -1 -1 -1 -2 -1 -1 -0 1 1 1 -0 -1 -0 1 2 1 0 -0 0 0 0 1 1 1 0 -0 -1 -2 -1 -0 0 0 nan
nan 0 0 0 0 0 -0 0 0 0 0 -0 -0 -0 -1 -0 -0 -1 -1 -1 -1 -1 -1 -2 -2 -1 -0 1 1 1 -1 -1 0 1 1 1 0 1 0 -0 0 1 1 0 0 -0 -1 -1 -1 -0 0 nan
nan 0 0 0 0 1 1 0 1 1 1 1 0 -0 -0 -0 -0 -1 -1 -1 -1 -1 -1 -1 -2 -2 -1 0 1 1 0 -1 -1 1 1 1 1 1 0 0 0 1 1 0 -0 -0 -0 -0 -1 -1 0 nan
nan -0 0 1 1 1 1 1 1 1 1 1 1 0 0 0 0 -0 -1 -1 -1 -1 -1 -1 -1 -2 -1 -0 1 1 1 -0 -1 -0 1 1 1 1 0 0 1 1 1 0 -1 -0 -0 -0 -0 -0 -0 nan
nan -0 0 0 0 1 1 0 0 1 1 1 2 1 1 0 1 1 0 -0 -0 -1 -0 -1 -1 -1 -1 -1 0 1 1 1 -0 -1 0 1 0 0 1 1 0 1 1 0 -0 -1 -0 -0 -0 -0 0 nan
nan nan nan nan nan nan nan nan nan nan nan nan nan nan nan nan nan nan nan nan nan nan nan nan nan nan nan nan nan nan nan nan nan nan nan nan nan nan nan nan nan nan nan nan nan nan nan nan nan nan nan nan
Wind_Speed
23 24 25 26 27 27 26 26 26 26 25 25 24 22 22 21 22 22 21 21 20 21 20 20 21 22 23 23 24 24 24 24 23 23 24 24 24 24 24 24 24 24 23 21 21 23 25 26 25 26 30 32
25 25 25 26 26 26 26 26 26 26 25 24 23 22 21 21 22 22 22 22 22 22 22 22 22 22 23 23 23 23 23 23 22 22 23 24 25 25 25 24 24 23 23 22 21 21 23 24 24 24 26 29
25 26 26 26 26 26 26 27 27 27 27 26 26 25 24 23 23 23 22 22 23 23 23 23 23 23 23 23 23 23 22 22 22 22 22 23 23 24 25 25 24 23 23 22 22 21 21 22 23 24 25 26
24 25 26 27 28 28 28 29 29 29 29 29 29 28 27 26 25 24 23 23 24 23 23 23 24 24 24 23 24 24 23 22 22 23 22 22 22 23 24 24 24 23 22 22 22 22 21 21 21 22 24 25
24 25 26 28 29 30 31 31 31 31 31 31 31 31 30 29 28 27 26 25 25 24 23 23 23 24 24 25 25 25 24 23 24 24 24 23 23 24 25 24 24 23 22 21 21 21 22 21 21 20 21 24
26 27 28 29 30 31 31 31 32 32 32 32 32 32 31 31 30 30 28 26 25 25 24 23 24 24 25 25 25 25 25 25 25 25 25 24 25 26 26 26 25 25 24 22 21 21 21 21 21 20 20 22
27 28 29 30 30 31 31 31 32 32 32 32 33 33 33 32 32 31 29 28 27 26 25 24 24 24 24 25 25 25 25 26 25 24 24 23 24 25 25 26 26 26 26 25 24 22 21 21 21 21 20 20
27 29 30 30 31 31 31 31 31 32 32 32 33 33 33 33 33 32 31 31 30 28 27 25 24 24 25 25 24 25 25 26 25 23 23 24 23 24 25 26 26 27 27 27 26 24 22 22 22 22 22 21
28 29 30 31 31 32 32 32 32 32 32 32 33 33 33 34 33 33 33 33 32 30 29 27 25 25 24 24 25 25 26 26 25 24 24 24 23 23 25 26 27 27 27 28 28 27 25 23 22 22 23 23
29 31 32 32 32 33 33 33 33 32 32 32 32 33 33 33 34 34 33 34 33 32 31 29 27 25 24 25 25 25 26 25 25 25 25 25 24 24 25 26 27 27 27 28 28 29 28 26 24 23 23 24
30 31 32 33 33 33 33 34 33 33 33 33 32 32 33 33 34 34 34 34 34 33 32 30 28 26 25 25 26 25 25 25 25 25 25 25 25 25 25 26 26 27 27 27 28 29 29 30 28 26 24 24
31 31 33 34 35 35 34 35 34 34 34 33 33 33 33 33 33 33 34 34 34 34 32 31 29 27 27 26 26 25 25 25 25 25 25 25 25 25 26 26 27 27 27 26 27 27 29 30 31 29 27 25
32 32 33 34 35 36 36 36 35 35 35 34 34 34 34 33 33 33 33 33 34 34 33 32 30 28 27 26 26 25 25 25 26 26 26 26 25 26 26 27 27 27 26 26 26 27 28 30 31 32 30 28
33 33 34 35 36 36 37 37 37 37 37 36 36 35 35 34 33 33 33 33 34 34 34 32 31 29 27 27 26 25 25 25 26 26 26 26 26 26 27 26 27 27 27 27 26 27 28 29 31 32 32 31
33 34 35 36 36 37 37 38 38 38 38 38 38 37 36 35 34 33 33 33 33 34 34 33 31 29 27 26 26 25 25 25 25 26 26 26 26 26 26 26 27 27 27 27 27 27 28 29 30 31 32 31
34 35 36 37 38 39 39 39 39 39 39 39 39 38 37 36 35 34 34 33 33 34 34 33 32 30 28 26 26 26 25 26 26 26 26 25 26 27 26 26 26 26 26 27 27 27 28 29 31 31 31 30
36 37 38 39 40 41 41 41 41 40 40 40 40 40 39 37 36 35 35 34 34 34 34 34 33 31 29 27 26 26 26 26 27 26 26 26 26 27 26 26 26 25 26 26 27 27 28 29 30 31 30 28
37 38 39 40 40 41 42 42 42 42 41 41 41 40 40 39 37 36 36 35 35 34 34 33 33 32 30 28 27 27 27 27 27 27 26 26 26 26 26 26 25 25 26 26 27 27 28 28 29 29 28 26
34 36 37 38 39 40 41 42 42 43 43 42 42 41 41 40 39 37 36 36 36 35 34 33 33 33 31 29 28 28 27 27 27 27 26 25 26 26 26 26 25 25 25 25 26 27 27 27 27 27 26 25
30 31 33 35 36 38 39 41 41 42 43 43 43 43 43 42 41 39 38 37 36 35 34 33 33 33 31 30 28 28 28 28 28 27 26 25 25 26 26 26 25 25 25 25 25 26 26 26 25 25 24 23
27 28 30 31 33 35 37 39 40 41 42 42 43 43 44 43 42 41 40 38 37 36 34 33 33 33 31 30 29 28 28 28 28 27 27 26 25 25 25 25 24 24 24 24 24 25 25 24 23 22 20 20
27 27 28 29 30 32 34 36 38 39 40 41 42 43 43 44 43 43 42 40 38 37 35 34 33 33 31 30 29 28 28 28 27 26 26 26 25 24 24 24 23 23 22 22 23 23 23 22 21 20 18 18
27 26 26 28 28 30 32 34 35 37 38 39 40 41 42 43 44 44 43 42 40 38 36 34 34 33 32 30 29 28 28 28 27 26 26 26 25 24 23 23 22 20 20 20 21 21 21 20 20 19 16 15
26 26 26 27 28 29 30 31 33 35 37 38 39 40 41 42 43 44 44 42 41 39 37 35 34 34 32 30 29 28 28 28 27 26 26 26 25 24 23 21 19 18 17 18 19 19 19 19 19 17 14 14
24 25 25 26 27 28 29 30 31 33 35 36 37 38 39 41 42 43 44 43 42 41 39 37 36 35 33 30 28 28 28 27 27 26 25 25 24 23 22 20 18 16 15 16 18 18 19 19 16 12 12 13
22 23 24 25 26 28 29 29 30 31 33 34 36 37 39 40 42 43 44 44 44 43 41 39 37 36 34 31 28 28 27 27 27 26 25 25 24 22 21 19 17 14 13 15 17 18 20 19 13 10 9 11
21 21 21 23 24 26 27 28 28 29 31 33 36 38 40 41 42 43 44 44 45 44 44 42 39 37 35 32 29 28 28 27 27 27 25 25 25 22 21 20 17 15 14 16 16 16 17 15 13 12 7 8
21 21 21 21 23 24 25 27 27 28 29 31 34 37 40 41 41 42 43 43 44 44 45 44 41 38 36 34 30 28 28 28 28 27 26 25 25 23 22 20 18 15 14 16 16 13 12 11 12 10 6 11
23 23 23 23 25 26 26 28 29 30 30 30 31 34 37 38 40 41 41 42 43 43 44 43 42 39 37 34 31 30 29 29 28 27 27 26 25 25 24 21 19 16 15 17 19 17 15 12 9 8 10 13
25 25 26 25 27 28 28 28 29 29 30 31 31 33 34 36 38 40 40 41 41 41 42 42 41 39 37 36 33 31 30 30 29 28 27 27 26 26 25 23 22 20 18 19 21 21 19 15 12 14 15 14
29 29 29 27 27 27 26 27 28 27 28 30 31 32 33 35 37 39 40 41 41 41 41 41 41 40 39 38 36 33 31 31 30 29 28 27 27 27 26 25 25 24 21 20 21 21 21 19 17 17 16 15
Wind_Direction
355 357 355 356 356 355 355 356 357 355 354 350 343 337 333 330 326 325 325 325 326 325 327 331 333 336 338 337 336 334 331 330 330 329 327 328 329 328 328 327 326 325 323 322 319 314 308 302 298 290 284 283
349 352 350 351 351 350 351 353 354 353 353 351 347 343 336 330 327 325 324 323 323 323 326 329 329 332 335 335 335 333 331 329 328 327 325 325 326 326 326 326 326 326 325 324 322 320 315 311 306 298 290 285
342 345 344 344 345 344 347 350 351 351 350 350 350 349 345 339 333 328 325 323 321 322 323 325 326 328 330 331 333 333 332 331 327 324 323 323 324 323 323 324 325 326 325 324 324 322 319 316 311 305 298 290
334 337 339 338 339 341 344 347 348 349 348 349 350 349 349 346 340 334 330 326 321 319 319 321 321 322 323 326 330 332 333 332 327 324 323 323 321 321 321 322 323 324 324 324 324 323 321 318 314 309 303 296
329 332 334 334 336 340 342 342 344 345 346 347 347 347 348 347 345 342 336 329 323 318 316 316 316 317 319 323 327 329 331 331 329 326 325 325 323 322 321 320 320 321 322 323 323 321 320 318 315 312 305 299
327 328 329 332 334 336 337 338 339 341 343 344 344 345 345 346 347 345 340 332 326 321 316 314 314 317 320 322 325 327 329 331 330 327 327 327 325 324 322 321 321 321 322 322 323 321 319 318 315 312 307 301
323 325 326 329 329 331 333 333 334 336 338 339 341 342 343 345 346 344 341 337 332 327 321 318 316 317 318 320 323 325 328 329 328 326 325 325 322 321 321 322 322 322 322 321 322 321 320 318 315 312 308 303
319 320 322 324 324 325 327 328 329 331 333 335 337 339 341 342 342 342 342 341 337 331 326 322 318 316 316 318 321 322 324 325 325 324 320 320 320 319 319 321 322 321 322 321 321 321 321 317 314 312 309 305
315 315 318 319 320 320 322 323 324 326 328 330 332 335 337 338 338 341 343 342 339 334 329 326 321 317 316 317 318 319 320 321 322 320 318 318 319 317 317 319 320 321 322 321 320 320 320 317 314 310 308 305
313 313 315 315 315 316 318 319 320 322 323 325 328 330 332 333 335 339 341 341 339 335 330 327 323 318 316 315 314 314 315 317 317 317 317 316 316 315 315 317 318 319 320 320 320 320 319 317 315 311 307 304
311 311 312 312 312 314 315 315 317 319 319 321 324 326 327 329 332 336 338 339 338 334 330 327 325 320 316 313 311 310 311 313 314 314 315 314 313 313 313 314 314 315 317 319 319 318 317 315 314 312 308 304
310 310 310 310 310 312 313 313 314 316 316 318 320 321 322 325 328 331 334 335 335 333 331 327 325 322 316 312 310 309 308 309 311 312 312 312 311 311 311 311 311 312 313 315 316 315 315 313 312 311 310 306
310 310 309 309 309 311 311 312 313 314 314 315 316 317 318 320 323 326 329 330 331 331 330 327 325 322 316 312 309 307 307 307 308 309 309 310 309 309 309 308 308 308 310 312 313 314 312 311 309 309 309 308
311 311 310 309 309 310 311 311 312 311 312 313 313 314 315 316 318 320 323 324 327 328 329 327 324 321 317 311 308 306 305 304 305 306 307 308 308 308 306 305 306 307 309 311 312 312 310 309 307 306 307 307
311 311 310 310 309 310 310 310 310 310 311 311 311 311 311 313 314 315 317 319 322 324 326 326 323 321 317 311 307 303 302 302 301 303 306 307 306 304 303 304 306 307 308 309 310 310 309 307 304 305 306 307
309 308 308 307 306 307 307 307 308 309 309 309 309 308 309 310 311 311 313 315 317 320 323 324 323 320 317 312 306 303 301 300 299 302 304 304 303 302 303 304 305 305 306 306 308 307 305 304 303 303 304 308
305 305 304 303 303 303 303 303 304 306 307 307 307 306 307 308 308 309 310 311 313 315 318 322 322 320 318 314 308 303 300 299 299 300 302 303 303 303 302 302 302 302 302 303 303 302 301 301 302 302 305 312
302 302 302 301 301 300 300 300 300 302 303 303 304 304 305 306 306 306 306 307 308 310 314 318 321 320 318 315 309 303 300 298 298 299 301 302 300 300 299 299 300 299 298 299 299 299 299 300 301 303 308 314
302 301 301 300 301 300 299 298 298 299 300 300 301 301 302 303 303 302 302 303 304 306 310 314 319 320 318 314 309 303 299 296 296 297 298 298 297 296 296 296 297 296 296 297 297 297 297 299 300 305 311 314
305 304 301 299 300 299 298 298 298 298 298 298 298 298 299 299 299 299 299 299 301 303 306 310 314 317 317 313 309 303 298 295 294 295 295 294 294 293 293 293 294 294 295 294 295 295 296 299 302 307 311 311
311 310 305 302 299 299 298 297 297 298 297 297 296 296 297 297 297 297 297 297 298 299 301 304 308 313 314 312 308 303 298 295 293 292 291 291 290 290 290 291 291 291 292 293 293 293 295 299 304 307 310 308
316 315 309 305 302 299 298 297 298 298 297 297 297 296 296 295 296 296 296 296 296 296 297 299 303 307 311 310 307 303 299 295 291 289 288 288 287 286 286 286 287 288 289 290 290 290 295 301 305 307 308 306
321 318 313 309 307 303 301 301 301 300 300 300 298 297 296 295 295 295 294 295 294 294 294 296 299 302 306 307 305 302 300 296 290 287 285 285 285 283 282 282 283 285 286 286 286 291 297 301 302 308 311 307
323 320 317 313 310 308 307 306 304 303 302 302 301 299 298 296 295 294 293 293 293 292 292 294 296 298 301 303 303 301 300 297 290 285 282 282 283 282 280 279 279 281 282 282 285 292 296 299 305 312 314 309
323 318 317 315 313 312 311 309 306 304 304 304 303 301 299 297 295 294 293 293 292 292 291 292 293 294 296 298 298 298 298 296 290 283 279 279 278 278 277 275 274 274 276 280 285 291 294 298 303 308 311 311
325 318 312 310 312 312 310 307 306 305 304 304 302 300 299 298 297 295 294 293 292 291 290 290 291 291 292 294 294 293 293 292 290 282 276 275 274 272 271 268 266 265 267 272 279 288 294 299 296 293 304 302
330 325 315 309 309 309 307 306 305 304 301 299 298 298 299 298 297 296 296 295 293 291 290 290 289 288 288 290 291 289 289 289 288 283 275 271 271 269 264 262 261 259 259 263 270 279 287 294 298 302 296 256
338 336 329 322 321 320 315 314 314 311 307 301 298 298 297 297 298 298 297 297 295 292 291 289 288 286 284 286 289 287 285 284 285 283 275 268 266 263 259 257 257 255 256 261 264 265 267 278 291 296 261 238
345 345 344 339 337 337 333 329 327 323 321 315 307 302 299 299 298 297 296 297 296 294 292 290 287 284 281 283 286 285 283 281 281 280 274 266 262 258 255 255 253 247 243 251 259 261 261 266 267 254 250 264
343 345 349 348 346 346 341 337 335 331 327 323 317 310 304 302 299 297 296 296 296 295 293 291 288 283 280 282 283 283 282 278 276 275 272 266 260 256 254 252 252 246 238 242 254 262 263 261 257 255 263 276
339 340 342 344 344 345 342 338 338 337 332 327 323 315 306 301 298 296 296 295 295 295 293 290 287 283 280 281 281 280 279 277 274 273 270 264 259 255 252 248 249 249 246 243 248 258 266 266 263 263 265 267
Height
1540 1539 1538 1537 1537 1536 1535 1534 1533 1531 1530 1529 1528 1527 1525 1524 1523 1522 1521 1521 1520 1520 1520 1519 1518 1518 1517 1516 1515 1514 1513 1512 1511 1510 1508 1508 1507 1507 1506 1506 1505 1504 1503 1503 1502 1501 1499 1498 1500 1500 1499 1498
1537 1537 1537 1536 1536 1535 1534 1533 1532 1531 1530 1529 1527 1526 1525 1523 1522 1521 1520 1519 1519 1518 1518 1517 1516 1516 1516 1515 1514 1513 1511 1510 1509 1508 1507 1506 1506 1505 1505 1504 1503 1502 1501 1501 1500 1500 1498 1496 1497 1497 1496 1496
1535 1535 1535 1535 1535 1534 1533 1532 1531 1529 1528 1527 1526 1525 1523 1522 1520 1519 1519 1518 1517 1516 1516 1515 1515 1514 1514 1513 1512 1511 1510 1509 1508 1507 1506 1505 1504 1503 1503 1502 1501 1500 1499 1498 1498 1498 1497 1496 1494 1494 1494 1494
1534 1534 1534 1533 1533 1532 1531 1530 1529 1528 1526 1525 1524 1523 1522 1520 1519 1518 1517 1516 1515 1515 1514 1514 1513 1513 1512 1512 1511 1509 1508 1507 1506 1505 1504 1504 1503 1502 1501 1500 1499 1499 1498 1497 1496 1495 1495 1494 1493 1492 1491 1491
1533 1533 1532 1531 1530 1529 1528 1527 1527 1526 1524 1523 1522 1521 1520 1519 1518 1516 1515 1515 1514 1513 1513 1512 1512 1511 1510 1509 1508 1507 1506 1505 1504 1502 1502 1501 1501 1500 1499 1498 1497 1497 1496 1495 1494 1494 1492 1492 1491 1491 1490 1489
1532 1531 1530 1529 1528 1527 1527 1526 1525 1524 1523 1522 1521 1520 1519 1518 1516 1515 1514 1513 1512 1511 1511 1510 1510 1509 1508 1507 1506 1505 1504 1503 1502 1500 1499 1499 1498 1497 1496 1495 1494 1494 1493 1493 1492 1492 1491 1490 1489 1488 1488 1487
1530 1529 1528 1527 1527 1526 1526 1524 1524 1523 1522 1521 1520 1519 1517 1516 1515 1514 1512 1511 1510 1509 1509 1508 1508 1507 1506 1505 1504 1503 1502 1501 1500 1498 1497 1497 1496 1495 1494 1492 1492 1491 1490 1489 1489 1489 1488 1487 1486 1486 1485 1485
1529 1528 1527 1526 1525 1525 1524 1523 1522 1521 1521 1519 1518 1517 1516 1514 1514 1512 1510 1509 1508 1507 1506 1506 1506 1505 1504 1503 1502 1501 1500 1499 1498 1497 1496 1495 1495 1493 1491 1490 1489 1488 1487 1486 1486 1486 1485 1485 1484 1483 1483 1482
1529 1528 1527 1526 1525 1524 1523 1522 1521 1520 1519 1518 1517 1515 1514 1513 1512 1511 1509 1507 1506 1505 1504 1504 1503 1503 1502 1501 1500 1499 1498 1497 1496 1495 1494 1493 1492 1491 1489 1488 1486 1485 1484 1483 1482 1482 1482 1482 1481 1481 1480 1479
1527 1526 1525 1524 1523 1522 1521 1520 1519 1518 1517 1516 1515 1514 1513 1512 1510 1509 1507 1506 1505 1503 1502 1501 1501 1500 1500 1499 1498 1498 1496 1495 1494 1493 1493 1491 1490 1489 1487 1486 1484 1483 1482 1481 1480 1479 1478 1478 1478 1478 1477 1477
1526 1524 1523 1522 1522 1521 1520 1519 1518 1517 1516 1515 1514 1512 1511 1510 1509 1507 1506 1504 1503 1502 1501 1499 1499 1498 1498 1497 1496 1496 1495 1494 1493 1492 1490 1489 1488 1487 1485 1484 1482 1481 1480 1479 1477 1476 1475 1474 1474 1474 1474 1474
1524 1523 1522 1520 1519 1518 1518 1517 1516 1515 1514 1513 1512 1511 1510 1508 1507 1506 1504 1503 1502 1500 1499 1498 1496 1496 1495 1494 1494 1493 1493 1492 1490 1489 1488 1487 1486 1485 1483 1482 1480 1479 1478 1477 1475 1474 1473 1471 1471 1471 1471 1471
1521 1521 1520 1518 1517 1516 1515 1514 1514 1513 1512 1511 1510 1509 1508 1507 1505 1504 1503 1502 1500 1499 1497 1496 1495 1494 1493 1492 1491 1491 1490 1489 1488 1487 1486 1485 1484 1483 1481 1480 1478 1477 1476 1475 1473 1472 1471 1469 1468 1467 1467 1467
1519 1518 1517 1516 1515 1514 1513 1512 1511 1510 1509 1508 1508 1507 1506 1505 1504 1502 1501 1500 1499 1497 1496 1494 1493 1492 1490 1490 1489 1488 1487 1487 1486 1485 1484 1483 1482 1480 1479 1478 1476 1475 1473 1472 1471 1470 1468 1467 1465 1464 1464 1464
1517 1516 1515 1514 1513 1512 1511 1510 1509 1508 1507 1506 1505 1504 1503 1502 1501 1500 1499 1498 1497 1495 1494 1492 1491 1490 1488 1487 1487 1486 1485 1484 1483 1482 1481 1480 1479 1478 1476 1475 1474 1472 1471 1470 1469 1468 1466 1465 1463 1462 1461 1461
1515 1514 1513 1512 1510 1509 1508 1507 1506 1505 1504 1503 1502 1501 1500 1500 1499 1498 1497 1496 1494 1493 1492 1490 1489 1487 1486 1485 1484 1483 1482 1481 1480 1480 1479 1478 1477 1475 1474 1473 1472 1470 1468 1467 1467 1465 1464 1463 1461 1460 1459 1458
1514 1512 1511 1510 1508 1507 1505 1504 1503 1502 1501 1499 1498 1497 1497 1496 1495 1494 1494 1493 1492 1491 1489 1488 1486 1485 1483 1482 1481 1480 1479 1478 1477 1477 1476 1476 1474 1473 1471 1470 1469 1468 1466 1465 1464 1463 1462 1460 1459 1458 1457 1457
1511 1510 1509 1507 1506 1504 1502 1501 1500 1499 1498 1497 1496 1494 1493 1493 1493 1492 1491 1490 1489 1488 1487 1486 1484 1482 1481 1480 1479 1477 1477 1476 1475 1474 1473 1473 1472 1470 1469 1468 1467 1465 1464 1463 1462 1461 1460 1458 1457 1456 1455 1455
1509 1508 1506 1504 1503 1501 1500 1498 1497 1496 1495 1494 1493 1492 1491 1490 1490 1489 1489 1488 1487 1486 1484 1483 1482 1480 1479 1477 1476 1475 1474 1473 1472 1472 1471 1470 1469 1468 1467 1465 1464 1463 1462 1461 1460 1459 1457 1456 1455 1454 1454 1453
1507 1506 1504 1502 1500 1498 1497 1495 1494 1493 1492 1491 1490 1489 1488 1487 1486 1486 1486 1485 1484 1483 1481 1480 1479 1478 1477 1475 1474 1473 1472 1471 1470 1469 1468 1468 1467 1465 1464 1463 1462 1461 1460 1458 1457 1456 1455 1454 1453 1452 1452 1451
1505 1503 1501 1500 1498 1496 1494 1492 1491 1490 1489 1488 1487 1486 1485 1484 1483 1482 1482 1482 1481 1480 1479 1478 1477 1476 1475 1473 1472 1471 1469 1468 1468 1467 1466 1465 1465 1463 1461 1461 1459 1458 1458 1456 1455 1454 1453 1452 1451 1451 1450 1449
1502 1500 1498 1497 1496 1494 1492 1490 1488 1487 1486 1484 1483 1482 1481 1480 1479 1478 1478 1478 1477 1477 1476 1475 1474 1473 1472 1470 1469 1468 1467 1466 1465 1464 1463 1462 1462 1461 1459 1458 1457 1456 1455 1454 1453 1452 1451 1450 1449 1449 1448 1447
1500 1498 1496 1494 1493 1491 1489 1487 1486 1484 1482 1481 1480 1479 1478 1477 1476 1475 1474 1474 1474 1473 1473 1472 1471 1470 1469 1467 1466 1464 1463 1463 1462 1461 1460 1459 1459 1458 1457 1456 1455 1454 1453 1452 1451 1450 1449 1448 1448 1447 1446 1445
1497 1495 1494 1492 1490 1489 1487 1485 1483 1481 1480 1478 1477 1476 1475 1474 1472 1471 1470 1470 1470 1469 1469 1469 1468 1467 1466 1464 1462 1461 1460 1459 1459 1458 1458 1457 1456 1455 1455 1454 1453 1452 1451 1450 1449 1448 1447 1446 1446 1445 1444 1443
1495 1493 1491 1490 1488 1486 1484 1483 1481 1479 1477 1475 1474 1473 1472 1471 1469 1468 1467 1467 1466 1466 1466 1465 1464 1463 1462 1461 1459 1457 1456 1456 1455 1455 1455 1454 1453 1452 1452 1452 1451 1451 1450 1448 1447 1446 1445 1445 1444 1443 1442 1441
1493 1492 1490 1488 1486 1484 1482 1481 1479 1476 1475 1473 1471 1470 1469 1468 1467 1465 1464 1464 1463 1462 1462 1462 1461 1460 1459 1458 1456 1454 1453 1452 1452 1452 1452 1451 1451 1450 1449 1449 1449 1449 1448 1447 1446 1445 1444 1442 1442 1441 1440 1439
1492 1490 1488 1486 1484 1483 1481 1479 1478 1476 1474 1472 1469 1467 1466 1465 1464 1463 1461 1461 1460 1459 1458 1458 1457 1457 1456 1454 1453 1452 1450 1449 1448 1448 1448 1448 1448 1448 1447 1447 1447 1447 1446 1445 1445 1445 1443 1441 1440 1439 1438 1437
1490 1488 1486 1485 1483 1481 1479 1477 1476 1474 1473 1471 1469 1466 1464 1463 1462 1460 1459 1458 1457 1456 1455 1454 1454 1453 1452 1451 1449 1448 1447 1446 1445 1444 1444 1445 1445 1445 1444 1444 1444 1445 1444 1443 1444 1444 1442 1441 1439 1438 1436 1435
1488 1486 1484 1482 1480 1477 1475 1474 1472 1470 1469 1468 1466 1464 1461 1460 1458 1457 1456 1455 1454 1453 1452 1451 1450 1450 1449 1447 1446 1444 1443 1443 1442 1441 1440 1440 1441 1441 1442 1442 1442 1442 1442 1441 1441 1441 1440 1440 1439 1436 1435 1433
1486 1484 1482 1479 1477 1475 1472 1471 1469 1467 1465 1464 1462 1460 1458 1456 1454 1453 1451 1451 1450 1449 1448 1447 1447 1447 1446 1445 1443 1441 1440 1439 1438 1438 1437 1436 1437 1437 1438 1439 1439 1439 1439 1439 1438 1438 1438 1438 1437 1435 1434 1433
1484 1482 1480 1478 1476 1473 1471 1468 1466 1465 1463 1461 1459 1456 1454 1452 1450 1449 1447 1446 1446 1445 1444 1444 1443 1443 1442 1441 1440 1438 1436 1435 1435 1434 1433 1433 1433 1433 1435 1435 1435 1435 1437 1437 1436 1435 1435 1435 1434 1433 1432 1431